Weather History for Minot, ND

Change the Weather History Date:

Sunday, January 26, 2014

  Actual Average Record
Temperature  
Mean Temperature 8 °F 13 °F  
Max Temperature 28 °F 22 °F 58 °F (1906)
Min Temperature -12 °F 4 °F -35 °F (1915)
Degree Days  
Heating Degree Days 57 52  
Month to date heating degree days 1327 1375  
Since 1 July heating degree days 5267 4970  
Moisture  
Dew Point -2 °F    
Average Humidity 73    
Maximum Humidity 81    
Minimum Humidity 64    
Precipitation  
Precipitation T in 0.02 in 0.55 in (1951)
Month to date precipitation 0.19 0.44  
Year to date precipitation 0.19 0.44  
Sea Level Pressure  
Sea Level Pressure 29.91 in    
Wind  
Wind Speed 27 mph (NW)    
Max Wind Speed 41 mph    
Max Gust Speed 53 mph    
Visibility 4 miles    
Events Fog , Snow    
T = Trace of Precipitation, MM = Missing Value Source: NWS Daily Summary

Daily Weather History Graph

Daily Weather History Graph

Search for Another Location

Airport:

Trip Planner

Search our weather history database for the weather conditions in past years. The results will help you decide how hot, cold, wet, or windy it might be!

Date:

Astronomy

Jan. 26, 2014 Rise Set
Actual Time 8:20 AM CST 5:35 PM CST
Civil Twilight 7:46 AM CST 6:09 PM CST
Nautical Twilight 7:08 AM CST 6:47 PM CST
Astronomical Twilight 6:32 AM CST 7:24 PM CST
Moon 4:02 AM CST (1/26) 1:23 PM CST (1/26)
Length of Visible Light 10h 22m
Length of Day
9h 14m
Waning Crescent, 23% of the Moon is Illuminated
Jan 26
Waning Crescent
Jan 30
New
Feb 6
First Quarter
Feb 14
Full
Feb 22
Last Quarter

Hourly Weather History & Observations

Time (CST) Temp. Windchill Dew Point Humidity Pressure Visibility Wind Dir Wind Speed Gust Speed Precip Events Conditions
12:13 AM 27.0 °F 11.6 °F 21.0 °F 78% 29.52 in 9.0 mi NW 26.5 mph 33.4 mph 0.00 in Snow Light Snow
12:54 AM 26.1 °F 9.8 °F 19.9 °F 78% 29.63 in 8.0 mi NW 28.8 mph 38.0 mph 0.00 in Snow Light Snow
1:54 AM 23.0 °F 11.7 °F 17.1 °F 78% 29.63 in 10.0 mi WNW 11.5 mph - 0.00 in   Overcast
2:43 AM 25.0 °F 11.3 °F 18.0 °F 75% 29.53 in 9.0 mi WNW 18.4 mph - 0.00 in   Overcast
2:52 AM 24.8 °F 11.5 °F 17.6 °F 74% 29.53 in 10.0 mi West 17.3 mph - 0.00 in   Overcast
2:54 AM 25.0 °F 11.3 °F 19.0 °F 78% 29.62 in 10.0 mi West 18.4 mph - 0.00 in   Overcast
3:54 AM 26.1 °F 12.3 °F 19.0 °F 75% 29.59 in 10.0 mi NW 19.6 mph 26.5 mph 0.00 in   Overcast
4:54 AM 24.1 °F 8.3 °F 19.0 °F 81% 29.57 in 4.0 mi NW 24.2 mph 31.1 mph 0.00 in Snow Light Snow
5:54 AM 21.0 °F 2.4 °F 15.1 °F 78% 29.58 in 8.0 mi WNW 31.1 mph 39.1 mph 0.00 in Snow Light Snow
6:04 AM 21.0 °F 2.7 °F 15.1 °F 78% 29.50 in 1.8 mi NW 29.9 mph 39.1 mph 0.00 in Snow Light Snow
6:15 AM 19.9 °F 1.3 °F 16.0 °F 85% 29.50 in 0.5 mi NW 29.9 mph 41.4 mph 0.00 in Fog , Snow Light Snow
6:29 AM 18.0 °F -0.8 °F 15.1 °F 88% 29.51 in 0.5 mi NW 27.6 mph 38.0 mph 0.00 in Fog , Snow Snow
6:49 AM 15.8 °F -2.3 °F 12.2 °F 86% 29.53 in 1.5 mi NNW 23.0 mph - 0.00 in Snow Light Snow
6:51 AM 15.8 °F -3.1 °F 12.2 °F 86% 29.53 in 3.0 mi NNW 25.3 mph 32.2 mph 0.00 in Snow Light Snow
6:54 AM 16.0 °F -2.1 °F 10.9 °F 81% 29.61 in 4.0 mi NW 23.0 mph 32.2 mph 0.00 in Snow Light Snow
7:01 AM 16.0 °F -3.8 °F 10.0 °F 77% 29.55 in 8.0 mi NW 28.8 mph 34.5 mph 0.00 in Snow Light Snow
7:22 AM 15.1 °F -4.4 °F 9.0 °F 77% 29.55 in 1.8 mi NNW 26.5 mph 39.1 mph 0.00 in Snow Light Snow
7:30 AM 14.0 °F -5.8 °F 9.0 °F 80% 29.56 in 1.5 mi NNW 26.5 mph 34.5 mph 0.00 in Snow Light Snow
7:44 AM 12.9 °F -8.6 °F 7.0 °F 77% 29.58 in 0.5 mi NW 31.1 mph 39.1 mph 0.00 in Snow Snow
7:54 AM 12.0 °F -10.4 °F 6.1 °F 77% 29.68 in 0.5 mi NW 33.4 mph 44.9 mph 0.00 in Snow Snow
7:56 AM 10.9 °F -11.6 °F 5.0 °F 77% 29.60 in 3.0 mi NW 32.2 mph 44.9 mph 0.00 in Snow Light Snow
7:59 AM 10.9 °F -11.3 °F 5.0 °F 77% 29.60 in 1.5 mi NNW 31.1 mph 44.9 mph 0.00 in Snow Light Snow
8:06 AM 10.9 °F -11.3 °F 5.0 °F 77% 29.61 in 1.5 mi NNW 31.1 mph 40.3 mph 0.00 in Snow Light Snow
8:15 AM 9.0 °F -15.2 °F 3.9 °F 80% 29.62 in 0.5 mi NW 35.7 mph 43.7 mph 0.00 in Snow Snow
8:26 AM 8.1 °F -16.2 °F 1.9 °F 76% 29.63 in 0.5 mi NW 34.5 mph 40.3 mph 0.00 in Snow Snow
8:51 AM 8.6 °F -14.1 °F 1.4 °F 73% 29.67 in 0.5 mi NW 29.9 mph 36.8 mph 0.00 in Snow Snow
8:54 AM 8.1 °F -13.4 °F 1.9 °F 76% 29.75 in 0.5 mi NW 25.3 mph 36.8 mph 0.00 in Snow Snow
9:01 AM 8.1 °F -13.8 °F 3.0 °F 80% 29.68 in 1.5 mi NNW 26.5 mph 36.8 mph 0.00 in Snow Light Snow
9:05 AM 8.1 °F -14.5 °F 3.0 °F 80% 29.69 in 0.8 mi NNW 28.8 mph 39.1 mph 0.00 in Snow Light Snow
9:10 AM 7.0 °F -17.0 °F 3.0 °F 84% 29.69 in 0.2 mi NW 32.2 mph 47.2 mph 0.00 in Snow Heavy Snow
9:27 AM 6.1 °F -17.2 °F -0.0 °F 76% 29.71 in 0.2 mi NW 28.8 mph 44.9 mph 0.00 in Snow Heavy Snow
9:50 AM 5.0 °F -19.0 °F -2.2 °F 72% 29.74 in 3.0 mi NNW 29.9 mph 38.0 mph 0.00 in Snow Blowing Snow
9:54 AM 5.0 °F -16.7 °F -2.9 °F 70% 29.83 in 3.0 mi NNW 23.0 mph 38.0 mph 0.00 in Snow Blowing Snow
10:01 AM 5.0 °F -18.7 °F -2.9 °F 70% 29.75 in 2.0 mi NNW 28.8 mph 38.0 mph N/A Snow Blowing Snow
10:21 AM 5.0 °F -19.0 °F -4.0 °F 66% 29.77 in 3.0 mi NNW 29.9 mph 39.1 mph N/A Snow Blowing Snow
10:28 AM 5.0 °F -17.5 °F -4.0 °F 66% 29.78 in 2.0 mi NW 25.3 mph 39.1 mph N/A Snow Blowing Snow
10:37 AM 5.0 °F -19.4 °F -4.0 °F 66% 29.80 in 3.0 mi NW 31.1 mph 40.3 mph N/A Snow Blowing Snow
10:44 AM 5.0 °F -19.4 °F -4.0 °F 66% 29.81 in 1.8 mi NW 31.1 mph 40.3 mph N/A Snow Blowing Snow
10:54 AM 5.0 °F -18.7 °F -4.0 °F 66% 29.92 in 1.5 mi NNW 28.8 mph 40.3 mph N/A Snow Blowing Snow
11:17 AM 3.9 °F -22.5 °F -2.0 °F 76% 29.85 in 0.8 mi NNW 36.8 mph 46.0 mph N/A Snow Blowing Snow
11:26 AM 1.9 °F -24.3 °F -4.0 °F 76% 29.87 in 0.2 mi NNW 33.4 mph 48.3 mph N/A Snow Blowing Snow
11:38 AM 1.9 °F -25.2 °F -4.0 °F 76% 29.89 in 0.2 mi NNW 36.8 mph 49.5 mph N/A Snow Blowing Snow
11:45 AM 1.0 °F -26.1 °F -5.1 °F 75% 29.90 in 0.2 mi NNW 35.7 mph 51.8 mph N/A Snow Blowing Snow
11:54 AM 1.9 °F -26.1 °F -5.1 °F 72% 30.02 in 0.2 mi NW 40.3 mph 49.5 mph N/A Snow Blowing Snow
12:04 PM 1.0 °F -26.8 °F -6.0 °F 72% 29.92 in 0.2 mi NW 38.0 mph 49.5 mph N/A Snow Blowing Snow
12:13 PM 1.0 °F -25.8 °F -6.0 °F 72% 29.93 in 0.2 mi NNW 34.5 mph 52.9 mph N/A Snow Blowing Snow
12:29 PM 1.0 °F -25.1 °F -6.0 °F 72% 29.95 in 0.5 mi NW 32.2 mph 48.3 mph N/A Snow Blowing Snow
12:39 PM 1.0 °F -25.8 °F -7.1 °F 69% 29.96 in 0.8 mi NNW 34.5 mph 47.2 mph N/A Snow Blowing Snow
12:54 PM -0.0 °F -27.6 °F -9.0 °F 66% 30.08 in 0.5 mi NNW 35.7 mph 48.3 mph N/A Snow Blowing Snow
1:11 PM -0.0 °F -27.0 °F -9.0 °F 66% 29.99 in 1.0 mi NNW 33.4 mph 47.2 mph N/A Snow Blowing Snow
1:21 PM 1.0 °F -24.0 °F -9.9 °F 60% 30.00 in 3.0 mi NW 28.8 mph 43.7 mph N/A Snow Blowing Snow
1:54 PM -0.0 °F -26.3 °F -7.1 °F 72% 30.14 in 3.0 mi WNW 31.1 mph 41.4 mph N/A Snow Blowing Snow
2:16 PM -0.9 °F -27.5 °F -8.0 °F 72% 30.04 in 1.8 mi WNW 31.1 mph 40.3 mph N/A Snow Blowing Snow
2:20 PM -2.0 °F -30.4 °F -8.0 °F 76% 30.05 in 0.8 mi WNW 35.7 mph 42.6 mph N/A Snow Blowing Snow
2:54 PM -2.9 °F -30.9 °F -9.9 °F 72% 30.19 in 1.0 mi NW 33.4 mph 42.6 mph N/A Snow Blowing Snow
3:04 PM -2.9 °F -29.4 °F -9.9 °F 72% 30.08 in 2.0 mi WNW 28.8 mph 38.0 mph N/A Snow Blowing Snow
3:38 PM -4.0 °F -32.0 °F -13.0 °F 65% 30.12 in 4.0 mi WNW 32.2 mph 42.6 mph N/A Snow Blowing Snow
3:54 PM -4.0 °F -32.0 °F -13.0 °F 65% 30.27 in 8.0 mi WNW 32.2 mph 41.4 mph N/A Snow Blowing Snow
4:54 PM -5.1 °F -30.0 °F -13.0 °F 69% 30.30 in 6.0 mi WNW 23.0 mph 41.4 mph N/A Snow Blowing Snow
5:02 PM -5.1 °F -32.3 °F -11.9 °F 72% 30.19 in 1.8 mi WNW 28.8 mph 41.4 mph N/A Snow Blowing Snow
5:08 PM -5.1 °F -31.5 °F -13.0 °F 69% 30.19 in 3.0 mi WNW 26.5 mph 41.4 mph N/A Snow Blowing Snow
5:15 PM -6.0 °F -33.5 °F -11.9 °F 75% 30.20 in 3.0 mi WNW 28.8 mph 41.4 mph N/A Snow Blowing Snow
5:39 PM -7.1 °F -35.0 °F -15.0 °F 68% 30.21 in 10.0 mi NW 28.8 mph 36.8 mph N/A Snow Blowing Snow
5:54 PM -7.1 °F -35.0 °F -14.1 °F 72% 30.36 in 7.0 mi NW 28.8 mph 34.5 mph N/A Snow Blowing Snow
6:06 PM -7.1 °F -32.7 °F -16.1 °F 65% 30.23 in 7.0 mi NW 23.0 mph 34.5 mph N/A Snow Blowing Snow
6:18 PM -7.1 °F -34.1 °F -14.1 °F 72% 30.25 in 1.8 mi WNW 26.5 mph 32.2 mph N/A Snow Blowing Snow
6:29 PM -8.0 °F -35.8 °F -14.1 °F 75% 30.24 in 3.0 mi WNW 27.6 mph 36.8 mph N/A Snow Blowing Snow
6:54 PM -8.0 °F -34.9 °F -15.0 °F 71% 30.40 in 6.0 mi WNW 25.3 mph 35.7 mph N/A Snow Blowing Snow
7:35 PM -9.0 °F -35.8 °F -18.0 °F 65% 30.28 in 10.0 mi WNW 24.2 mph 35.7 mph N/A Snow Blowing Snow
7:54 PM -9.0 °F -38.1 °F -18.0 °F 65% 30.43 in 10.0 mi WNW 29.9 mph 36.8 mph N/A Snow Blowing Snow
8:54 PM -9.9 °F -39.7 °F -18.9 °F 65% 30.45 in 10.0 mi WNW 31.1 mph 39.1 mph N/A Snow Blowing Snow
9:46 PM -9.9 °F -37.0 °F -18.0 °F 68% 30.30 in 10.0 mi WNW 24.2 mph 32.2 mph N/A Snow Blowing Snow
9:54 PM -9.9 °F -37.0 °F -18.9 °F 65% 30.46 in 10.0 mi WNW 24.2 mph 35.7 mph N/A Snow Blowing Snow
10:23 PM -9.9 °F -36.5 °F -18.9 °F 65% 30.31 in 10.0 mi WNW 23.0 mph 32.2 mph N/A Snow Blowing Snow
10:54 PM -11.0 °F -37.9 °F -18.9 °F 68% 30.49 in 10.0 mi WNW 23.0 mph 29.9 mph N/A Snow Blowing Snow
11:13 PM -11.9 °F -39.1 °F -20.0 °F 67% 30.32 in 10.0 mi WNW 23.0 mph 29.9 mph N/A Snow Blowing Snow
11:37 PM -11.9 °F -39.1 °F -20.0 °F 67% 30.33 in 10.0 mi WNW 23.0 mph 29.9 mph N/A Snow Blowing Snow
11:54 PM -11.9 °F -39.1 °F -20.0 °F 67% 30.50 in 10.0 mi WNW 23.0 mph - N/A Snow Blowing Snow